This is the latest recevied weather packets stored in our database for station/object N8RJC-13. If no packets are shown the sender has not sent any weather packets the latest 10 day(s).
| Time | Temp. | Humidity | Pressure | Rain* | Wind** | Luminosity | Snow |
|---|---|---|---|---|---|---|---|
| 1777496841 | 17.22° C | 69% | 986.4 hPa | 0 mm | 1.79 m/s, 305° | - | - |
| 1777496781 | 17.22° C | 69% | 986.4 hPa | 0 mm | 1.79 m/s, 305° | - | - |
| 1777496721 | 17.22° C | 71% | 986.7 hPa | 0 mm | 1.34 m/s, 275° | - | - |
| 1777496661 | 17.22° C | 71% | 986.7 hPa | 0 mm | 1.34 m/s, 275° | - | - |
| 1777496601 | 17.22° C | 71% | 986.7 hPa | 0 mm | 1.34 m/s, 275° | - | - |
| 1777496541 | 17.22° C | 71% | 986.7 hPa | 0 mm | 1.34 m/s, 275° | - | - |
| 1777496481 | 17.22° C | 71% | 986.7 hPa | 0 mm | 1.34 m/s, 275° | - | - |
| 1777496421 | 17.78° C | 69% | 986 hPa | 0 mm | 1.79 m/s, 287° | - | - |
| 1777496361 | 17.78° C | 69% | 986 hPa | 0 mm | 1.79 m/s, 287° | - | - |
| 1777496301 | 17.78° C | 69% | 986 hPa | 0 mm | 1.79 m/s, 287° | - | - |
| 1777496241 | 17.78° C | 69% | 986 hPa | 0 mm | 1.79 m/s, 287° | - | - |
| 1777496181 | 17.78° C | 69% | 986 hPa | 0 mm | 1.79 m/s, 287° | - | - |
| 1777496121 | 17.78° C | 64% | 986.2 hPa | 0 mm | 0.89 m/s, 317° | - | - |
| 1777496061 | 17.78° C | 64% | 986.2 hPa | 0 mm | 0.89 m/s, 317° | - | - |
| 1777496001 | 17.78° C | 64% | 986.2 hPa | 0 mm | 0.89 m/s, 317° | - | - |
| 1777495941 | 17.78° C | 64% | 986.2 hPa | 0 mm | 0.89 m/s, 317° | - | - |
| 1777495881 | 17.78° C | 64% | 986.2 hPa | 0 mm | 0.89 m/s, 317° | - | - |
| 1777495821 | 17.78° C | 71% | 986.1 hPa | 0 mm | 1.79 m/s, 302° | - | - |
| 1777495761 | 17.78° C | 71% | 986.1 hPa | 0 mm | 1.79 m/s, 302° | - | - |
| 1777495701 | 17.78° C | 71% | 986.1 hPa | 0 mm | 1.79 m/s, 302° | - | - |
| 1777495641 | 17.78° C | 71% | 986.1 hPa | 0 mm | 1.79 m/s, 302° | - | - |
| 1777495581 | 17.78° C | 71% | 986.1 hPa | 0 mm | 1.79 m/s, 302° | - | - |
| 1777495521 | 17.78° C | 70% | 986.1 hPa | 0 mm | 0.89 m/s, 255° | - | - |
| 1777495461 | 17.78° C | 70% | 986.1 hPa | 0 mm | 0.89 m/s, 255° | - | - |
| 1777495401 | 17.78° C | 70% | 986.1 hPa | 0 mm | 0.89 m/s, 255° | - | - |
* Rain latest hour (hover to see other rain measurements)
** Current wind speed in m/s (hover to see current wind gust speed)